DW5686 Weather Reports


Display with metric or nautical units.
time (UTC)temp
F
wind
direction
speed
MPH
gust
MPH
rain 1hr
in
rain 24hr
in
rain mn
in
humidity
%
barometer
mb
20260905131525 81 213 4.0 7.0 0.00 0.00 0.00 76 1014.0
20260905131004 81 238 2.0 5.0 0.00 0.00 0.00 77 1014.0
20260905130525 80 150 2.0 6.0 0.00 0.00 0.00 78 1014.0
20260905130003 80 186 3.0 6.0 0.00 0.00 0.00 79 1014.1
20260905125503 79 198 2.0 7.0 0.00 0.00 0.00 81 1014.0
20260905125003 78 211 2.0 7.0 0.00 0.00 0.00 81 1014.0
20260905124504 78 223 3.0 6.0 0.00 0.00 0.00 82 1014.1
20260905124003 78 191 2.0 6.0 0.00 0.00 0.00 83 1014.0
20260905123503 77 207 3.0 7.0 0.00 0.00 0.00 83 1014.0
20260905123003 77 211 3.0 7.0 0.00 0.00 0.00 83 1014.0
20260905122504 77 196 3.0 7.0 0.00 0.00 0.00 84 1013.9
20260905122003 77 230 3.0 6.0 0.00 0.00 0.00 84 1014.0
20260905121503 76 200 2.0 6.0 0.00 0.00 0.00 86 1013.9
20260905121003 76 192 2.0 6.0 0.00 0.00 0.00 86 1014.0
20260905120503 76 216 2.0 5.0 0.00 0.00 0.00 86 1014.0
20260905120004 76 231 2.0 6.0 0.00 0.00 0.00 86 1014.0
20260905115504 75 205 3.0 6.0 0.00 0.00 0.00 87 1014.0
20260905115004 75 207 2.0 4.0 0.00 0.00 0.00 87 1013.9
20260905114504 75 207 1.0 4.0 0.00 0.00 0.00 88 1013.9
20260905114004 75 207 2.0 4.0 0.00 0.00 0.00 88 1013.8
20260905113504 74 191 2.0 3.0 0.00 0.00 0.00 89 1013.7
20260905113025 74 172 2.0 3.0 0.00 0.00 0.00 89 1013.7
20260905112503 74 171 1.0 2.0 0.00 0.00 0.00 89 1013.6
20260905112004 74 171 1.0 2.0 0.00 0.00 0.00 89 1013.6
20260905111504 74 171 1.0 2.0 0.00 0.00 0.00 89 1013.5
20260905111024 74 171 0.0 2.0 0.00 0.00 0.00 89 1013.3
20260905110503 74 171 1.0 2.0 0.00 0.00 0.00 88 1013.1
20260905110003 74 171 1.0 2.0 0.00 0.00 0.00 88 1013.0
20260905105503 74 171 1.0 2.0 0.00 0.00 0.00 88 1013.0
20260905105004 74 171 1.0 3.0 0.00 0.00 0.00 88 1012.9
20260905104504 74 171 1.0 4.0 0.00 0.00 0.00 88 1012.8
20260905104004 74 187 2.0 4.0 0.00 0.00 0.00 88 1012.7
20260905103503 74 207 1.0 2.0 0.00 0.00 0.00 88 1012.7
20260905103004 74 207 1.0 2.0 0.00 0.00 0.00 88 1012.6
20260905102503 74 207 0.0 2.0 0.00 0.00 0.00 88 1012.6
20260905102003 74 207 0.0 2.0 0.00 0.00 0.00 88 1012.7
20260905101503 74 0 0.0 0.0 0.00 0.00 0.00 88 1012.6
20260905101003 74 0 0.0 2.0 0.00 0.00 0.00 88 1012.5
20260905100503 74 0 0.0 2.0 0.00 0.00 0.00 87 1012.4
20260905100003 74 207 1.0 2.0 0.00 0.00 0.00 87 1012.4
20260905095504 75 0 0.0 2.0 0.00 0.00 0.00 86 1012.5
20260905095024 75 207 1.0 2.0 0.00 0.00 0.00 86 1012.5
20260905094524 75 207 1.0 2.0 0.00 0.00 0.00 86 1012.4
20260905094003 76 0 0.0 1.0 0.00 0.00 0.00 84 1012.4
20260905093504 76 207 0.0 3.0 0.00 0.00 0.00 84 1012.3
20260905093003 76 207 1.0 3.0 0.00 0.00 0.00 84 1012.4
20260905092524 76 207 1.0 4.0 0.00 0.00 0.00 84 1012.3
20260905092003 76 224 2.0 4.0 0.00 0.00 0.00 83 1012.3
20260905091504 76 251 1.0 6.0 0.00 0.00 0.00 83 1012.3
20260905091003 76 246 2.0 6.0 0.00 0.00 0.00 83 1012.4
20260905090503 76 237 3.0 5.0 0.00 0.00 0.00 83 1012.4
20260905090003 76 220 2.0 5.0 0.00 0.00 0.00 83 1012.5
20260905085524 76 182 2.0 3.0 0.00 0.00 0.00 84 1012.6
20260905085004 76 182 1.0 3.0 0.00 0.00 0.00 84 1012.6
20260905084503 76 182 1.0 3.0 0.00 0.00 0.00 84 1012.7
20260905084003 76 182 1.0 3.0 0.00 0.00 0.00 84 1012.7
20260905083504 76 182 2.0 2.0 0.00 0.00 0.00 86 1012.8
20260905083004 76 182 0.0 2.0 0.00 0.00 0.00 84 1012.8
20260905082504 76 182 0.0 2.0 0.00 0.00 0.00 84 1012.8
20260905082005 76 0 0.0 2.0 0.00 0.00 0.00 84 1012.9
20260905081524 77 182 1.0 2.0 0.00 0.00 0.00 84 1013.0
20260905081004 76 182 1.0 3.0 0.00 0.00 0.00 86 1012.9
20260905080504 76 182 1.0 3.0 0.00 0.00 0.00 86 1013.0
20260905080003 76 182 1.0 3.0 0.00 0.00 0.00 86 1013.1
20260905075504 76 182 1.0 3.0 0.00 0.00 0.00 86 1013.1
20260905075003 76 0 0.0 0.0 0.00 0.00 0.00 86 1013.3
20260905074503 76 0 0.0 1.0 0.00 0.00 0.00 84 1013.2
20260905074004 76 182 1.0 1.0 0.00 0.00 0.00 84 1013.2
20260905073524 76 0 0.0 2.0 0.00 0.00 0.00 84 1013.2
20260905073004 76 182 0.0 2.0 0.00 0.00 0.00 84 1013.2
20260905072505 77 182 1.0 2.0 0.00 0.00 0.00 84 1013.2
20260905072025 77 182 0.0 2.0 0.00 0.00 0.00 83 1013.2
20260905071502 77 182 0.0 2.0 0.00 0.00 0.00 83 1013.2
20260905071002 77 182 2.0 2.0 0.00 0.00 0.00 83 1013.2
20260905070503 77 182 2.0 2.0 0.00 0.00 0.00 83 1013.4
20260905070002 77 0 0.0 1.0 0.00 0.00 0.00 83 1013.5
20260905065503 77 0 0.0 2.0 0.00 0.00 0.00 83 1013.7
20260905065002 77 0 0.0 2.0 0.00 0.00 0.00 82 1013.6
20260905064503 77 182 1.0 2.0 0.00 0.00 0.00 82 1013.6
20260905064023 77 0 0.0 0.0 0.00 0.00 0.00 82 1013.7
20260905063502 78 0 0.0 0.0 0.00 0.00 0.00 82 1013.7
20260905063002 78 0 0.0 2.0 0.00 0.00 0.00 82 1013.9
20260905062503 78 182 1.0 2.0 0.00 0.00 0.00 81 1013.8
20260905062003 78 0 0.0 2.0 0.00 0.00 0.00 81 1013.9
20260905061502 78 182 0.0 2.0 0.00 0.00 0.00 81 1013.9
20260905061002 78 182 1.0 2.0 0.00 0.00 0.00 81 1014.1
20260905060503 78 0 0.0 2.0 0.00 0.00 0.00 81 1014.2
20260905060023 78 0 0.0 2.0 0.00 0.00 0.00 81 1014.2
20260905055502 78 0 0.0 0.0 0.00 0.00 0.00 81 1014.3
20260905055002 78 0 0.0 1.0 0.00 0.00 0.00 81 1014.3
20260905054502 78 0 0.0 1.0 0.00 0.00 0.00 81 1014.4
20260905054003 78 182 0.0 1.0 0.00 0.00 0.00 79 1014.4
20260905053503 78 182 0.0 1.0 0.00 0.00 0.00 79 1014.4
20260905053002 79 182 0.0 2.0 0.00 0.00 0.00 79 1014.5
20260905052502 79 182 0.0 2.0 0.00 0.00 0.00 79 1014.4
20260905052002 79 182 1.0 2.0 0.00 0.00 0.00 78 1014.4
20260905051502 79 182 0.0 2.0 0.00 0.00 0.00 78 1014.5
20260905051002 79 182 0.0 2.0 0.00 0.00 0.00 78 1014.4
20260905050502 79 182 1.0 2.0 0.00 0.00 0.00 78 1014.5
20260905050002 79 0 0.0 2.0 0.00 0.00 0.00 79 1014.7
20260905045502 79 182 0.0 2.0 0.00 0.00 0.00 78 1014.7
20260905045002 79 0 0.0 0.0 0.00 0.00 0.00 77 1014.7
20260905044524 79 0 0.0 0.0 0.00 0.00 0.00 77 1014.6
20260905044002 80 0 0.0 1.0 0.00 0.00 0.00 77 1014.6
20260905043502 80 182 0.0 2.0 0.00 0.00 0.00 77 1014.7
20260905043003 80 0 0.0 2.0 0.00 0.00 0.00 76 1014.6
20260905042502 80 182 0.0 2.0 0.00 0.00 0.00 76 1014.6
20260905042002 80 0 0.0 3.0 0.00 0.00 0.00 76 1014.6
20260905041503 80 182 1.0 3.0 0.00 0.00 0.00 76 1014.6
20260905041002 81 169 0.0 1.0 0.00 0.00 0.00 76 1014.7
20260905040503 81 169 0.0 2.0 0.00 0.00 0.00 75 1014.7
20260905040002 81 169 0.0 2.0 0.00 0.00 0.00 74 1014.6
20260905035503 81 169 1.0 5.0 0.00 0.00 0.00 74 1014.6
20260905035003 81 169 0.0 5.0 0.00 0.00 0.00 74 1014.4
20260905034503 81 147 0.0 2.0 0.00 0.00 0.00 74 1014.2
20260905034002 82 147 0.0 3.0 0.00 0.00 0.00 72 1014.2
20260905033524 82 147 2.0 5.0 0.00 0.00 0.00 71 1014.2
20260905033002 82 224 1.0 5.0 0.00 0.00 0.00 71 1014.1
20260905032502 82 233 1.0 4.0 0.00 0.00 0.00 71 1014.2
20260905032002 82 234 2.0 6.0 0.00 0.00 0.00 70 1014.2
20260905031502 82 267 2.0 6.0 0.00 0.00 0.00 70 1014.4
20260905031003 82 238 2.0 5.0 0.00 0.00 0.00 70 1014.4
20260905030503 82 225 2.0 6.0 0.00 0.00 0.00 70 1014.6
20260905030003 83 227 2.0 7.0 0.00 0.00 0.00 69 1014.5
20260905025503 83 215 1.0 7.0 0.00 0.00 0.00 69 1014.4
20260905025003 83 219 1.0 7.0 0.00 0.00 0.00 70 1014.5
20260905024502 83 187 3.0 7.0 0.00 0.00 0.00 69 1014.6
20260905024003 82 203 2.0 5.0 0.00 0.00 0.00 70 1014.5
20260905023502 82 226 1.0 3.0 0.00 0.00 0.00 71 1014.5
20260905023003 82 183 1.0 6.0 0.00 0.00 0.00 71 1014.5
20260905022523 82 166 2.0 6.0 0.00 0.00 0.00 71 1014.5
20260905022002 82 125 1.0 3.0 0.00 0.00 0.00 71 1014.5
20260905021502 82 220 1.0 3.0 0.00 0.00 0.00 72 1014.4
20260905021002 82 206 1.0 3.0 0.00 0.00 0.00 72 1014.5
20260905020502 82 205 1.0 3.0 0.00 0.00 0.00 72 1014.5
20260905020003 82 205 1.0 4.0 0.00 0.00 0.00 72 1014.4
20260905015502 83 205 1.0 4.0 0.00 0.00 0.00 71 1014.4
20260905015002 83 203 1.0 3.0 0.00 0.00 0.00 71 1014.4
20260905014523 83 203 0.0 2.0 0.00 0.00 0.00 70 1014.5
20260905014002 83 203 1.0 2.0 0.00 0.00 0.00 71 1014.4
20260905013504 83 203 0.0 2.0 0.00 0.00 0.00 70 1014.5
20260905013025 83 203 1.0 4.0 0.00 0.00 0.00 70 1014.4
20260905012502 84 203 1.0 4.0 0.00 0.00 0.00 70 1014.3
20260905012002 84 203 1.0 5.0 0.00 0.00 0.00 69 1014.2
20260905011502 84 210 1.0 5.0 0.00 0.00 0.00 69 1014.2
20260905011004 84 229 1.0 5.0 0.00 0.00 0.00 69 1014.1
20260905010502 84 229 0.0 5.0 0.00 0.00 0.00 69 1014.0
20260905010002 84 214 1.0 4.0 0.00 0.00 0.00 69 1014.1
20260905005502 84 214 2.0 4.0 0.00 0.00 0.00 68 1014.2
20260905005002 84 214 0.0 2.0 0.00 0.00 0.00 68 1014.2
20260905004502 84 183 1.0 2.0 0.00 0.00 0.00 68 1014.2
20260905004003 84 183 0.0 3.0 0.00 0.00 0.00 68 1014.3
20260905003523 84 183 1.0 3.0 0.00 0.00 0.00 68 1014.2
20260905003003 85 183 1.0 2.0 0.00 0.00 0.00 67 1014.3
20260905002502 85 0 0.0 2.0 0.00 0.00 0.00 67 1014.4
20260905002002 85 183 1.0 2.0 0.00 0.00 0.00 65 1014.3
20260905001503 85 183 0.0 2.0 0.00 0.00 0.00 64 1014.2
20260905001004 85 183 1.0 2.0 0.00 0.00 0.00 64 1014.3
20260905000504 86 183 0.0 2.0 0.00 0.00 0.00 64 1014.2
20260905000002 86 0 0.0 2.0 0.00 0.00 0.00 64 1014.2
20260904235503 86 183 0.0 2.0 0.00 0.00 0.00 63 1014.1
20260904235002 87 183 0.0 2.0 0.00 0.00 0.00 61 1014.0
20260904234503 87 183 1.0 2.0 0.00 0.00 0.00 61 1013.9
20260904234003 87 183 1.0 3.0 0.00 0.00 0.00 60 1013.9
20260904233502 88 183 1.0 3.0 0.00 0.00 0.00 59 1013.8
20260904233003 88 0 0.0 3.0 0.00 0.00 0.00 59 1013.8
20260904232502 88 183 0.0 3.0 0.00 0.00 0.00 58 1013.8
20260904232002 89 178 2.0 6.0 0.00 0.00 0.00 58 1013.8
20260904231523 89 146 1.0 6.0 0.00 0.00 0.00 57 1013.8
20260904231024 90 185 0.0 4.0 0.00 0.00 0.00 57 1013.7
20260904230524 90 146 2.0 2.0 0.00 0.00 0.00 57 1013.6
20260904230023 90 146 1.0 4.0 0.00 0.00 0.00 55 1013.7
20260904225502 91 146 1.0 6.0 0.00 0.00 0.00 53 1013.6
20260904225024 92 144 1.0 7.0 0.00 0.00 0.00 52 1013.6
20260904224503 92 176 3.0 8.0 0.00 0.00 0.00 50 1013.6
20260904224002 92 169 4.0 8.0 0.00 0.00 0.00 49 1013.5
20260904223504 93 139 2.0 7.0 0.00 0.00 0.00 49 1013.7
20260904223003 93 204 3.0 10.0 0.00 0.00 0.00 48 1013.6
20260904222502 93 174 3.0 10.0 0.00 0.00 0.00 48 1013.8
20260904222003 93 226 3.0 7.0 0.00 0.00 0.00 48 1013.8
20260904221503 94 202 2.0 7.0 0.00 0.00 0.00 48 1013.8
20260904221002 94 181 4.0 12.0 0.00 0.00 0.00 47 1013.9
20260904220503 94 164 7.0 12.0 0.00 0.00 0.00 46 1013.9
20260904220003 94 269 2.0 8.0 0.00 0.00 0.00 47 1013.8
20260904215502 94 177 5.0 8.0 0.00 0.00 0.00 46 1013.8
20260904215024 94 170 5.0 9.0 0.00 0.00 0.00 46 1013.8
20260904214503 94 169 5.0 9.0 0.00 0.00 0.00 46 1013.8
20260904214002 94 11 1.0 7.0 0.00 0.00 0.00 45 1013.9
20260904213503 94 167 3.0 8.0 0.00 0.00 0.00 45 1013.8
20260904213003 95 157 5.0 8.0 0.00 0.00 0.00 45 1013.8
20260904212503 96 152 4.0 10.0 0.00 0.00 0.00 46 1013.7
20260904212003 96 168 5.0 10.0 0.00 0.00 0.00 46 1013.6
20260904211503 96 205 1.0 9.0 0.00 0.00 0.00 44 1013.6
20260904211002 96 167 5.0 9.0 0.00 0.00 0.00 44 1013.7
20260904210504 96 237 2.0 6.0 0.00 0.00 0.00 44 1013.8
20260904210004 96 186 2.0 7.0 0.00 0.00 0.00 45 1013.9
20260904205502 97 136 3.0 7.0 0.00 0.00 0.00 44 1014.0
20260904205002 97 143 1.0 7.0 0.00 0.00 0.00 44 1014.2
20260904204503 97 158 5.0 8.0 0.00 0.00 0.00 44 1014.0
20260904204002 98 175 3.0 8.0 0.00 0.00 0.00 44 1014.1
20260904203503 97 266 2.0 6.0 0.00 0.00 0.00 45 1014.3
20260904203003 96 71 0.0 8.0 0.00 0.00 0.00 45 1014.0
20260904202503 97 143 3.0 12.0 0.00 0.00 0.00 44 1014.2
20260904202002 97 168 7.0 15.0 0.00 0.00 0.00 45 1014.2
20260904201504 97 160 7.0 15.0 0.00 0.00 0.00 45 1014.2
20260904201003 98 198 3.0 12.0 0.00 0.00 0.00 44 1014.2
20260904200503 98 204 3.0 11.0 0.00 0.00 0.00 46 1014.4
20260904200023 97 207 4.0 7.0 0.00 0.00 0.00 45 1014.4
20260904195503 97 209 4.0 10.0 0.00 0.00 0.00 45 1014.6
20260904195004 97 157 2.0 11.0 0.00 0.00 0.00 49 1014.7
20260904194524 97 180 3.0 12.0 0.00 0.00 0.00 48 1014.7
20260904194024 96 183 4.0 12.0 0.00 0.00 0.00 49 1014.9
20260904193523 96 160 5.0 12.0 0.00 0.00 0.00 48 1015.0
20260904193003 95 39 3.0 12.0 0.00 0.00 0.00 51 1015.0
20260904192503 95 172 3.0 12.0 0.00 0.00 0.00 50 1015.0
20260904192003 94 184 5.0 10.0 0.00 0.00 0.00 51 1015.1
20260904191502 95 168 6.0 10.0 0.00 0.00 0.00 50 1015.2
20260904191002 95 167 2.0 7.0 0.00 0.00 0.00 50 1015.3
20260904190524 95 220 2.0 5.0 0.00 0.00 0.00 51 1015.4
20260904190003 94 149 2.0 10.0 0.00 0.00 0.00 55 1015.4
20260904185503 93 165 2.0 10.0 0.00 0.00 0.00 56 1015.6
20260904185003 93 157 2.0 7.0 0.00 0.00 0.00 55 1015.6
20260904184504 93 136 2.0 10.0 0.00 0.00 0.00 53 1015.8
20260904184025 94 153 4.0 10.0 0.00 0.00 0.00 52 1015.7
20260904183504 95 159 2.0 7.0 0.00 0.00 0.00 51 1015.8
20260904183003 96 161 3.0 9.0 0.00 0.00 0.00 47 1015.8
20260904182503 96 205 4.0 9.0 0.00 0.00 0.00 47 1015.9
20260904182003 96 179 4.0 11.0 0.00 0.00 0.00 46 1016.0
20260904181502 96 167 6.0 11.0 0.00 0.00 0.00 46 1016.0
20260904181003 95 210 4.0 7.0 0.00 0.00 0.00 49 1016.1
20260904180503 95 132 2.0 10.0 0.00 0.00 0.00 48 1016.1
20260904180003 96 222 3.0 10.0 0.00 0.00 0.00 49 1016.3
20260904175525 96 176 3.0 6.0 0.00 0.00 0.00 50 1016.3
20260904175003 95 243 3.0 6.0 0.00 0.00 0.00 50 1016.3
20260904174503 94 26 3.0 6.0 0.00 0.00 0.00 48 1016.4
20260904174003 94 191 2.0 6.0 0.00 0.00 0.00 51 1016.4
20260904173525 95 157 3.0 6.0 0.00 0.00 0.00 49 1016.3
20260904173004 94 220 3.0 6.0 0.00 0.00 0.00 52 1016.4
20260904172525 94 178 2.0 6.0 0.00 0.00 0.00 52 1016.4
20260904172004 94 251 2.0 6.0 0.00 0.00 0.00 55 1016.5
20260904171503 94 166 2.0 7.0 0.00 0.00 0.00 52 1016.5
20260904171025 94 253 2.0 7.0 0.00 0.00 0.00 55 1016.5
20260904170525 93 237 2.0 7.0 0.00 0.00 0.00 56 1016.6
20260904170024 93 229 3.0 9.0 0.00 0.00 0.00 55 1016.6
20260904165503 93 170 5.0 9.0 0.00 0.00 0.00 55 1016.6
20260904165003 94 217 3.0 7.0 0.00 0.00 0.00 56 1016.8
20260904164523 94 19 2.0 6.0 0.00 0.00 0.00 51 1016.9
20260904164003 93 192 3.0 7.0 0.00 0.00 0.00 55 1016.9
20260904163504 92 245 3.0 7.0 0.00 0.00 0.00 58 1017.0
20260904163003 92 210 3.0 8.0 0.00 0.00 0.00 58 1017.0
20260904162503 91 185 4.0 8.0 0.00 0.00 0.00 58 1017.1
20260904162003 90 179 3.0 9.0 0.00 0.00 0.00 60 1017.2
20260904161503 90 199 4.0 9.0 0.00 0.00 0.00 60 1017.3
20260904161003 90 219 3.0 7.0 0.00 0.00 0.00 59 1017.5
20260904160504 90 200 4.0 8.0 0.00 0.00 0.00 59 1017.5
20260904160003 91 216 4.0 8.0 0.00 0.00 0.00 59 1017.5
20260904155503 91 241 2.0 7.0 0.00 0.00 0.00 60 1017.5
20260904155003 91 246 2.0 11.0 0.00 0.00 0.00 60 1017.6
20260904154503 90 201 4.0 12.0 0.00 0.00 0.00 60 1017.6
20260904154024 90 205 5.0 12.0 0.00 0.00 0.00 59 1017.5
20260904153504 90 162 2.0 7.0 0.00 0.00 0.00 62 1017.6
20260904153003 89 128 2.0 7.0 0.00 0.00 0.00 62 1017.7
20260904152503 89 187 2.0 5.0 0.00 0.00 0.00 63 1017.6
20260904152004 89 229 3.0 7.0 0.00 0.00 0.00 61 1017.7
20260904151524 89 197 2.0 7.0 0.00 0.00 0.00 64 1017.7
20260904151003 88 87 1.0 7.0 0.00 0.00 0.00 67 1017.7
20260904150504 88 212 2.0 9.0 0.00 0.00 0.00 65 1017.7
20260904150004 87 242 3.0 10.0 0.00 0.00 0.00 67 1017.6
20260904145503 87 228 3.0 10.0 0.00 0.00 0.00 67 1017.6
20260904145003 87 223 3.0 9.0 0.00 0.00 0.00 67 1017.7
20260904144503 87 223 4.0 9.0 0.00 0.00 0.00 67 1017.6
20260904144024 86 203 3.0 8.0 0.00 0.00 0.00 68 1017.7
20260904143524 85 228 4.0 11.0 0.00 0.00 0.00 68 1017.6
20260904143004 85 211 5.0 11.0 0.00 0.00 0.00 69 1017.6
20260904142504 84 220 6.0 12.0 0.00 0.00 0.00 70 1017.6
20260904142004 84 223 4.0 13.0 0.00 0.00 0.00 70 1017.5
20260904141504 85 210 8.0 13.0 0.00 0.00 0.00 69 1017.4
20260904141003 85 205 2.0 9.0 0.00 0.00 0.00 70 1017.4
20260904140525 84 202 4.0 9.0 0.00 0.00 0.00 70 1017.5
20260904140003 84 225 2.0 12.0 0.00 0.00 0.00 72 1017.4
20260904135503 84 221 5.0 12.0 0.00 0.00 0.00 72 1017.4
20260904135003 83 234 2.0 12.0 0.00 0.00 0.00 72 1017.5
20260904134504 83 185 4.0 12.0 0.00 0.00 0.00 72 1017.5
20260904134004 83 178 1.0 11.0 0.00 0.00 0.00 76 1017.4
20260904133503 82 225 4.0 11.0 0.00 0.00 0.00 75 1017.5
20260904133004 82 182 3.0 7.0 0.00 0.00 0.00 75 1017.4
20260904132504 82 232 2.0 12.0 0.00 0.00 0.00 77 1017.4